{"data":{"norad_id":54788,"intl_designator":"2022-175AG","name":"STARLINK-5399","alt_names":[],"object_type":"PAYLOAD","status":"ACTIVE","operator":null,"country":"US","launch_date":"2022-12-17","launch_site_code":"AFETR","launch_vehicle":null,"mission":null,"orbit_class":"UNKNOWN","rcs_meters":null,"size_class":null,"mass_kg":null,"dimensions":null,"purposes":["comms"],"wikipedia_slug":null,"has_3d_model":false,"image_url":null,"decayed_at":null,"tle_current":{"epoch":"2026-09-20T07:00:59.214528Z","epoch_age_seconds":107618,"freshness":"FRESH","line1":"1 54788U 22175AG  26263.29235202 -.00000816  00000+0 -13013-4 0  9991","line2":"2 54788  53.1586 220.4189 0001193  81.4020 278.7118 15.34398737209710","mean_motion":15.34398737,"eccentricity":0.0001193,"inclination_deg":53.1586,"raan_deg":220.4189,"arg_perigee_deg":81.402,"mean_anomaly_deg":278.7118,"bstar":-1.3013e-5,"rev_number":20971,"period_min":93.847835329651,"perigee_km":461.89088142335,"apogee_km":463.52310680034,"semimajor_km":6840.8439941118,"source":"CELESTRAK","updated_at":"2026-09-21T09:00:33.126226Z"}}}